Location: Drummondville
(45.8830°N, 72.4830°W)
Time: 21:53:47
(UTC-05:00)

ISS - Pass Details

Date: 11 November 2017
Orbit: 402 x 407 km, 51.6° (Epoch: 21 November)

Event Time Altitude Azimuth Distance (km) Brightness Sun altitude
Exits shadow 05:20:32 24° 323° (NW) 875 -2.6 -14.8°
Maximum altitude 05:21:58 39° 16° (NNE) 623 -2.9 -14.5°
Drops below altitude 10° 05:25:03 10° 87° (E) 1,454 0.3 -14.0°
Sets 05:27:13 0° 95° (E) 2,312 2.0 -13.6°
